User: anonymous   Login
Location: Long Point Provincial Park
(42.5794°N, 80.4103°W)
Time: 01:23:18
(UTC-05:00)
Language:

Iridium 19 - Orbit

View from above orbital plane
View from above orbital plane
View from above satellite
View from above satellite

Ground track
Ground track

The orbit data is extracted from the following two-line orbital elements,

1 24965U 97056A   14329.50342981  .00000320  00000-0  10720-3 0   285
2 24965 086.3955 349.3965 0002192 108.0143 252.1292 14.34217021898580
Epoch (UTC): 25 November 2014 12:04:56
Eccentricity: 0.0002192
inclination: 86.3955°
perigee height: 776 km
apogee height: 779 km
right ascension of ascending node: 349.3965°
argument of perigee: 108.0143°
revolutions per day: 14.34217021
mean anomaly at epoch: 252.1292°
orbit number at epoch: 89858

The dashed part of the orbit path shows where the satellite is in the earth's shadow,  

DLR